Location: Newark
(38.4486°N, 122.7047°W)
Time: 00:26:10
(UTC+00:00)

Envisat - Visible Passes

Search period start: 26 September 2020 00:00
Search period end: 06 October 2020 00:00
Orbit: 764 x 766 km, 98.1° (Epoch: 25 September)

Date Brightness Start Highest point End Pass type
(mag) Time Alt. Az. Time Alt. Az. Time Alt. Az.
26 Sep 5.8 02:26:22 10° SSW 02:30:22 23° W 02:34:25 10° NW visible
26 Sep 6.2 12:58:26 10° ENE 13:01:06 14° E 13:03:44 10° ESE visible
28 Sep 6.4 02:53:48 10° WSW 02:56:03 13° W 02:58:18 10° WNW visible
28 Sep 5.6 13:22:33 10° NE 13:26:45 26° E 13:30:55 10° SSE visible
29 Sep 5.4 02:14:31 10° SSW 02:18:56 30° W 02:23:22 10° NW visible
29 Sep 6.6 12:48:31 10° ENE 12:49:36 11° E 12:50:41 10° ESE visible
01 Oct 6.2 02:41:22 10° SW 02:44:34 17° W 02:47:47 10° NW visible
01 Oct 6.0 13:11:36 10° NE 13:15:18 20° E 13:18:59 10° SE visible
03 Oct 4.9 13:36:15 10° NNE 13:40:55 35° E 13:45:33 10° SSE visible
04 Oct 5.9 02:29:16 10° SW 02:33:06 21° W 02:36:58 10° NW visible
04 Oct 6.2 13:00:51 10° NE 13:03:50 16° E 13:06:49 10° SE visible
